[[{"header":{"parameterUnit":"m.s-1","parameterCategory":1,"la1":30.2991,"la2":30.254,"lo1":-89.0895,"lo2":-89.0444,"dy":0.0017,"dx":0.0017,"nx":28,"ny":28,"refTime":"2024-06-17T09:00:00:Z","depth":0,"parameterNumber":2,"parameterNumberName":"U-component_of_WINDS"},"data":[0,0,0,0,0,0,0,0,0,0,0,0,0,0,0,0,0,0,0,0,0,0,0,0,0,0,0,0,0,0,0,0,0,0,0,0,0,0,0,0,0,0,0,0,0,0,0,0,0,0,0,0,0,0,0,0,0,0,-7.306,-7.3061,0,-7.3157,-7.3158,-7.3159,-7.2963,-7.2956,-7.295,-7.2944,-7.3045,-7.3053,-7.3062,0,0,0,0,0,0,0,0,0,0,0,0,0,-7.2706,-7.2713,-7.306,-7.3061,-7.3062,-7.3156,-7.3158,-7.3159,-7.2964,-7.2956,-7.2948,-7.2941,-7.3042,-7.3052,-7.3062,0,0,0,0,0,0,0,0,0,0,0,0,0,-7.2837,-7.2716,-7.3059,-7.2976,-7.2969,-7.3156,-7.3158,-7.3159,-7.2966,-7.2956,-7.2946,-7.2937,-7.3038,-7.3051,-7.3064,-7.3337,0,0,-7.3104,-7.3109,0,0,0,0,0,0,0,0,-7.283,-7.285,-7.2987,-7.2982,-7.2975,-7.3038,-7.3069,-7.3219,-7.2968,-7.2967,-7.2944,-7.2933,-7.305,-7.3062,-7.3101,-7.3341,-7.3345,-7.3105,-7.3113,-7.3118,-7.3122,0,0,0,0,0,0,0,-7.2821,-7.2845,-7.3098,-7.2989,-7.2982,-7.2934,-7.2942,-7.3097,-7.3062,-7.2966,-7.2952,-7.2967,-7.3045,-7.3089,-7.3102,-7.3347,-7.3104,-7.3116,-7.3124,-7.3129,-7.3814,-7.3824,0,0,0,0,0,0,-7.2822,-7.2838,-7.3095,-7.3101,-7.2877,-7.2948,-7.2957,-7.3027,-7.3059,-7.3055,-7.2975,-7.2957,-7.3071,-7.3087,-7.3105,-7.3425,-7.3118,-7.313,-7.3138,-7.3804,-7.3816,-7.3828,0,0,0,0,0,0,-7.2815,-7.2847,-7.3091,-7.2966,-7.2993,-7.2964,-7.3045,-7.3034,-7.3078,-7.3065,-7.3058,-7.3026,-7.3064,-7.3086,-7.328,-7.3425,-7.3136,-7.3148,-7.3792,-7.3808,-7.3822,-7.4068,0,0,0,0,0,0,-7.2806,-7.2846,-7.2949,-7.297,-7.3001,-7.3265,-7.3054,-7.3043,-7.3101,-7.3079,-7.3112,-7.3108,-7.3059,-7.3262,-7.3293,-7.3438,-7.3158,-7.3778,-7.3799,-7.3817,-7.4047,-7.409,-7.4128,0,0,0,0,0,-7.2794,-7.3015,-7.2955,-7.2987,-7.3129,-7.3274,-7.3292,-7.323,-7.3113,-7.3217,-7.3208,-7.3107,-7.3405,-7.3283,-7.3317,-7.3468,-7.3769,-7.3793,-7.3816,-7.4029,-7.4082,-7.4127,0,0,0,0,0,0,-7.3013,-7.3016,-7.295,-7.3184,-7.323,-7.3241,-7.3369,-7.3288,-7.3369,-7.3345,-7.3265,-7.3274,-7.3484,-7.3495,-7.3359,-7.3733,-7.3567,-7.3598,-7.3718,-7.3768,-7.3807,-7.38,-7.3169,0,0,0,0,0,-7.3088,-7.3205,-7.3202,-7.3409,-7.3435,-7.3399,-7.346,-7.3408,-7.3453,-7.3471,-7.3477,-7.3525,-7.3628,-7.3699,-7.3794,-7.4048,-7.4052,-7.4168,-7.4209,-7.4242,-7.427,-7.4404,-7.4455,-7.3905,-7.3904,-7.3904,0,0,-7.3245,-7.3262,-7.3341,-7.3453,-7.3483,-7.3606,-7.3417,-7.3555,-7.3645,-7.3492,-7.3675,-7.3682,-7.3729,-7.3954,-7.4053,-7.397,-7.4423,-7.4272,-7.4298,-7.4308,-7.4433,-7.4485,-7.4532,-7.3921,-7.3918,-7.3915,0,0,-7.3594,-7.3619,-7.3793,-7.3827,-7.3873,-7.3848,-7.389,-7.3913,-7.3911,-7.4093,-7.398,-7.4087,-7.4268,-7.4306,-7.4349,-7.4712,-7.4621,-7.4746,-7.4956,-7.5087,-7.513,-7.5168,-7.5297,-7.5344,-7.4773,-7.4774,-7.4774,0,-7.3784,-7.3964,-7.3893,-7.4039,-7.4092,-7.3959,-7.4134,-7.417,-7.4247,-7.4286,-7.4192,-7.4415,-7.4438,-7.4669,-7.4758,-7.4798,-7.4843,-7.4741,-7.513,-7.5167,-7.5202,-7.5323,-7.5372,-7.4789,-7.4787,-7.4785,-7.4784,0,-7.4194,-7.4321,-7.4456,-7.4532,-7.46,-7.4761,-7.4714,-7.4791,-7.4734,-7.4719,-7.4905,-7.4928,-7.5025,-7.5076,-7.5022,-7.53,-7.5246,-7.5143,-7.4974,-7.527,-7.5383,-7.5429,-7.481,-7.4804,-7.48,-7.4796,0,0,-7.4683,-7.4718,-7.4768,-7.4801,-7.4843,-7.4939,-7.5094,-7.5187,-7.5255,-7.5312,-7.5439,-7.5595,-7.5499,-7.5548,-7.5497,-7.5613,-7.5898,-7.5494,-7.5494,-7.5568,-7.6204,-7.6281,-7.6337,-7.5838,-7.5847,-7.5853,-7.62,0,-7.5028,-7.5292,-7.5233,-7.5494,-7.561,-7.5485,-7.5619,-7.5659,-7.5649,-7.5745,-7.5733,-7.5845,-7.571,-7.5739,-7.5848,-7.584,-7.6024,-7.5814,-7.5955,-7.5961,-7.5946,-7.6396,-7.6478,-7.6804,-7.6244,-7.6251,-7.6257,0,-7.5465,-7.5538,-7.581,-7.5832,-7.5879,-7.6,-7.6081,-7.6175,-7.6218,-7.6202,-7.6258,-7.6184,-7.6336,-7.6167,-7.6376,-7.6235,-7.6289,-7.6294,-7.6305,-7.6315,-7.6126,-7.6417,-7.6906,-7.6955,-7.6326,-7.632,-7.6315,0,-7.5793,-7.596,-7.6143,-7.6175,-7.6206,-7.6294,-7.6311,-7.6345,-7.6405,-7.6476,-7.6514,-7.6602,-7.6651,-7.6721,-7.6673,-7.6554,-7.689,-7.6717,-7.688,-7.6882,-7.6956,-7.6952,-7.746,-7.6993,-7.6993,-7.6992,-7.6991,0,-7.6184,-7.6355,-7.6291,-7.6404,-7.6592,-7.6523,-7.6711,-7.6713,-7.6744,-7.6855,-7.6753,-7.686,-7.679,-7.6892,-7.6855,-7.7033,-7.7056,-7.7047,-7.7035,-7.7056,-7.7057,-7.7089,-7.7065,-7.7004,-7.7002,-7.6999,-7.6997,0,-7.6581,-7.6546,-7.6738,-7.6751,-7.6758,-7.6896,-7.6907,-7.7012,-7.6994,-7.7136,-7.7166,-7.7138,-7.7251,-7.721,-7.7332,-7.7308,-7.7534,-7.7493,-7.752,-7.7509,-7.7675,-7.7659,-7.8221,-7.829,-7.778,-7.7785,-7.7789,0,-7.6832,-7.6961,-7.6988,-7.7055,-7.7079,-7.7189,-7.7249,-7.7186,-7.7253,-7.7311,-7.741,-7.7514,-7.7594,-7.7782,-7.7772,-7.7865,-7.7825,-7.8015,-7.7838,-7.7854,-7.7826,-7.7819,-7.7831,-7.805,-7.8056,-7.8061,-7.8065,0,-7.7281,-7.7257,-7.7348,-7.7434,-7.7508,-7.7573,-7.7628,-7.7689,-7.7628,-7.7709,-7.7824,-7.7886,-7.801,-7.8115,-7.8198,-7.8214,-7.8131,-7.8121,-7.8163,-7.8185,-7.8195,-7.819,-7.7615,-7.8108,-7.8104,-7.81,-7.8098,-7.8096,-7.7612,-7.772,-7.7756,-7.786,-7.7895,-7.7949,-7.8048,-7.8042,-7.8136,-7.8232,-7.8189,-7.8321,-7.836,-7.8463,-7.8492,-7.8594,-7.8521,-7.8583,-7.8598,-7.8614,-7.8635,-7.818,-7.861,-7.8608,-7.8607,-7.8606,-7.8605,0,-7.8054,-7.8071,-7.8168,-7.8248,-7.833,-7.8244,-7.83,-7.8375,-7.8492,-7.8536,-7.8617,-7.8748,-7.8849,-7.8848,-7.8942,-7.9024,-7.8988,-7.9051,-7.9044,-7.9049,-7.8696,-7.8649,-7.9079,-7.9079,-7.9079,-7.9079,-7.9079,-7.9078,-7.8294,-7.8472,-7.8452,-7.8646,-7.8661,-7.879,-7.8829,-7.8878,-7.8912,-7.9064,-7.9147,-7.9145,-7.9171,-7.9265,-7.9355,-7.9351,-7.939,-7.9468,-7.9451,-7.9121,-7.9074,-7.9029,-7.8985,-7.9477,-7.9478,-7.9794,-7.9797,-7.98]},{"header":{"parameterUnit":"m.s-1","parameterCategory":1,"la1":30.2991,"la2":30.254,"lo1":-89.0895,"lo2":-89.0444,"dy":0.0017,"dx":0.0017,"nx":28,"ny":28,"refTime":"2024-06-17T09:00:00:Z","depth":0,"parameterNumber":3,"parameterNumberName":"V-component_of_WINDS"},"data":[0,0,0,0,0,0,0,0,0,0,0,0,0,0,0,0,0,0,0,0,0,0,0,0,0,0,0,0,0,0,0,0,0,0,0,0,0,0,0,0,0,0,0,0,0,0,0,0,0,0,0,0,0,0,0,0,0,0,-1.6081,-1.6081,0,-1.6097,-1.6097,-1.6098,-1.6123,-1.6123,-1.6124,-1.6124,-1.6141,-1.6141,-1.6141,0,0,0,0,0,0,0,0,0,0,0,0,0,-1.6071,-1.6072,-1.6081,-1.6081,-1.6082,-1.6097,-1.6097,-1.6098,-1.6123,-1.6123,-1.6124,-1.6124,-1.6141,-1.6141,-1.6141,0,0,0,0,0,0,0,0,0,0,0,0,0,-1.608,-1.6072,-1.6081,-1.6096,-1.6097,-1.6097,-1.6097,-1.6098,-1.6123,-1.6123,-1.6124,-1.6125,-1.6141,-1.6141,-1.6141,-1.6127,0,0,-1.6141,-1.6141,0,0,0,0,0,0,0,0,-1.608,-1.6081,-1.6094,-1.6095,-1.6097,-1.6109,-1.61,-1.6108,-1.6122,-1.6113,-1.6124,-1.6125,-1.613,-1.6131,-1.6132,-1.6128,-1.6129,-1.6141,-1.6141,-1.6141,-1.6141,0,0,0,0,0,0,0,-1.6079,-1.608,-1.6088,-1.6094,-1.6096,-1.6102,-1.6104,-1.6102,-1.6117,-1.6114,-1.6116,-1.6117,-1.6131,-1.6132,-1.6133,-1.6129,-1.6141,-1.6141,-1.6141,-1.6141,-1.6113,-1.6112,0,0,0,0,0,0,-1.6076,-1.6079,-1.6087,-1.6088,-1.609,-1.6101,-1.6103,-1.6104,-1.6117,-1.612,-1.6117,-1.6118,-1.6132,-1.6133,-1.6133,-1.6117,-1.6141,-1.6141,-1.6141,-1.6114,-1.6113,-1.6112,0,0,0,0,0,0,-1.6076,-1.6077,-1.6086,-1.6084,-1.6086,-1.6101,-1.6101,-1.6104,-1.6106,-1.6119,-1.6122,-1.6115,-1.6132,-1.6133,-1.6128,-1.6118,-1.6141,-1.6141,-1.6115,-1.6113,-1.6112,-1.6085,0,0,0,0,0,0,-1.6076,-1.6077,-1.6072,-1.6084,-1.6086,-1.6081,-1.6101,-1.6104,-1.6105,-1.6108,-1.6119,-1.6121,-1.6133,-1.6128,-1.6128,-1.6118,-1.6141,-1.6116,-1.6114,-1.6113,-1.6086,-1.6083,-1.6079,0,0,0,0,0,-1.6075,-1.6064,-1.6072,-1.6072,-1.608,-1.608,-1.6082,-1.6095,-1.6105,-1.61,-1.6108,-1.6121,-1.6119,-1.6127,-1.6128,-1.6118,-1.6116,-1.6114,-1.6113,-1.6088,-1.6083,-1.6079,0,0,0,0,0,0,-1.6051,-1.6066,-1.6074,-1.6067,-1.6072,-1.6085,-1.6079,-1.609,-1.6092,-1.6095,-1.6111,-1.6113,-1.6105,-1.6111,-1.612,-1.6104,-1.612,-1.6118,-1.6101,-1.6096,-1.6093,-1.6091,-1.6141,0,0,0,0,0,-1.6044,-1.6043,-1.6057,-1.6049,-1.6051,-1.6064,-1.6065,-1.6074,-1.6081,-1.6083,-1.6092,-1.6097,-1.6097,-1.6097,-1.6099,-1.6088,-1.609,-1.6081,-1.6077,-1.6074,-1.6072,-1.6065,-1.6061,-1.6106,-1.6106,-1.6106,0,0,-1.6031,-1.604,-1.6038,-1.6044,-1.6049,-1.6047,-1.6066,-1.6064,-1.6062,-1.6083,-1.6078,-1.6084,-1.6091,-1.6083,-1.6079,-1.6087,-1.606,-1.6072,-1.607,-1.6069,-1.6063,-1.6059,-1.6055,-1.6105,-1.6105,-1.6105,0,0,-1.6006,-1.6013,-1.6006,-1.601,-1.6018,-1.6027,-1.6025,-1.6036,-1.604,-1.6036,-1.6051,-1.6049,-1.605,-1.6054,-1.6056,-1.6031,-1.6042,-1.6031,-1.6012,-1.6005,-1.6001,-1.5998,-1.5987,-1.5983,-1.6029,-1.6029,-1.6029,0,-1.5989,-1.5986,-1.6001,-1.5997,-1.5998,-1.6017,-1.6009,-1.6013,-1.602,-1.6021,-1.603,-1.603,-1.6036,-1.6028,-1.6021,-1.6023,-1.6021,-1.6029,-1.6,-1.5997,-1.5995,-1.5985,-1.5981,-1.6028,-1.6028,-1.6028,-1.6028,0,-1.5964,-1.5962,-1.5955,-1.5961,-1.5962,-1.5957,-1.5969,-1.5969,-1.5978,-1.5986,-1.598,-1.5988,-1.599,-1.5989,-1.5999,-1.5982,-1.5986,-1.5997,-1.6013,-1.5988,-1.5979,-1.5976,-1.6025,-1.6026,-1.6026,-1.6027,0,0,-1.5924,-1.5937,-1.5934,-1.5936,-1.5945,-1.5944,-1.5938,-1.594,-1.5938,-1.5943,-1.5938,-1.5938,-1.5948,-1.595,-1.596,-1.5954,-1.5931,-1.5966,-1.5966,-1.5958,-1.591,-1.59,-1.5896,-1.5939,-1.5938,-1.5938,-1.5909,0,-1.5899,-1.589,-1.5903,-1.5891,-1.5888,-1.5905,-1.59,-1.5905,-1.5912,-1.591,-1.5918,-1.5917,-1.5931,-1.5932,-1.5927,-1.5935,-1.5921,-1.5937,-1.5933,-1.5933,-1.5929,-1.5891,-1.5881,-1.5854,-1.5906,-1.5905,-1.5905,0,-1.5869,-1.5871,-1.5859,-1.5867,-1.5866,-1.5862,-1.5863,-1.5862,-1.5867,-1.5873,-1.5875,-1.5886,-1.5881,-1.5896,-1.5888,-1.5899,-1.5898,-1.5901,-1.5901,-1.59,-1.5916,-1.5888,-1.5846,-1.5841,-1.59,-1.59,-1.59,0,-1.5839,-1.5839,-1.5831,-1.5832,-1.5842,-1.5838,-1.5842,-1.5848,-1.5848,-1.5849,-1.5849,-1.585,-1.5851,-1.5851,-1.5862,-1.5873,-1.5852,-1.5869,-1.5855,-1.5855,-1.5849,-1.5849,-1.5805,-1.5851,-1.5851,-1.5852,-1.5852,0,-1.5809,-1.58,-1.5817,-1.5812,-1.5802,-1.5816,-1.5806,-1.5812,-1.5817,-1.5813,-1.5828,-1.5824,-1.584,-1.5837,-1.5846,-1.5837,-1.5837,-1.5841,-1.5843,-1.5838,-1.5837,-1.5837,-1.5838,-1.585,-1.5851,-1.5851,-1.5851,0,-1.5773,-1.5784,-1.5776,-1.5786,-1.5788,-1.578,-1.5788,-1.5783,-1.5791,-1.5785,-1.5785,-1.5797,-1.5794,-1.5806,-1.5806,-1.5811,-1.5797,-1.5803,-1.5795,-1.5796,-1.5781,-1.5781,-1.5733,-1.5727,-1.5779,-1.5779,-1.5778,0,-1.5753,-1.5746,-1.5755,-1.5753,-1.5755,-1.5753,-1.5752,-1.5766,-1.5764,-1.5769,-1.5763,-1.5762,-1.5761,-1.5756,-1.5765,-1.5764,-1.5769,-1.5752,-1.5769,-1.5764,-1.5767,-1.5766,-1.5765,-1.5748,-1.5748,-1.5747,-1.5747,0,-1.5714,-1.572,-1.5719,-1.5718,-1.5717,-1.5718,-1.572,-1.5718,-1.5732,-1.573,-1.5727,-1.5726,-1.5725,-1.5723,-1.5724,-1.5728,-1.5739,-1.5742,-1.5738,-1.5733,-1.5727,-1.5728,-1.5783,-1.5742,-1.5743,-1.5743,-1.5743,-1.5744,-1.5684,-1.5679,-1.5683,-1.5681,-1.5683,-1.5684,-1.568,-1.5686,-1.5684,-1.5684,-1.5692,-1.5687,-1.5691,-1.5694,-1.5696,-1.5692,-1.57,-1.5695,-1.5694,-1.5692,-1.5688,-1.5729,-1.5693,-1.5693,-1.5693,-1.5693,-1.5693,0,-1.5645,-1.5649,-1.5647,-1.5648,-1.5646,-1.5657,-1.5659,-1.5656,-1.5652,-1.5655,-1.5653,-1.5649,-1.5647,-1.5655,-1.5653,-1.5648,-1.5653,-1.5647,-1.5647,-1.5647,-1.5683,-1.5685,-1.5643,-1.5643,-1.5643,-1.5643,-1.5643,-1.5643,-1.5625,-1.5615,-1.5621,-1.5612,-1.5616,-1.561,-1.561,-1.5611,-1.5613,-1.5608,-1.5605,-1.5611,-1.5615,-1.5614,-1.5612,-1.5614,-1.5612,-1.5604,-1.5608,-1.564,-1.5645,-1.565,-1.5652,-1.5604,-1.5604,-1.5573,-1.5572,-1.5572]}]]